EXS798 LCPH-EGPH

Flight info

Callsign EXS798
Flight time N/A
Altitude 34000
Route GENOS DCT TOSKA DCT VAXOS DCT KPC DCT AKINA DCT RIGRO DCT AMISI DCT DISOR DCT LONTA/N0449F360 UL608 DOLEV DCT BEDOX DCT SIMBA DCT GASKA DCT MAPOX DCT GODOS DCT AGPED
Aircraft B738/M-SDE2E3FGHIRWXY/LB1

Departure

Time N/A
Airport Paphos International Airport (LCPH)

Arrival

Time 2026-04-21 13:22
Airport Edinburgh Airport (EGPH)
Time Latitude Longitude Altitude Speed Heading
2026-04-21 12:07 52.91655 4.35583 36375 ft 436 kts 303°
2026-04-21 12:08 52.93224 4.31290 36375 ft 436 kts 303°
2026-04-21 12:08 52.96361 4.22686 36383 ft 436 kts 303°
2026-04-21 12:09 52.99488 4.14071 36383 ft 436 kts 303°
2026-04-21 12:09 53.02611 4.05446 36385 ft 436 kts 303°
2026-04-21 12:10 53.05727 3.96812 36389 ft 436 kts 303°
2026-04-21 12:10 53.08837 3.88162 36387 ft 436 kts 303°
2026-04-21 12:11 53.11918 3.79558 36393 ft 436 kts 303°
2026-04-21 12:11 53.15016 3.70889 36390 ft 436 kts 302°
2026-04-21 12:12 53.18108 3.62200 36391 ft 436 kts 302°
2026-04-21 12:12 53.21193 3.53499 36396 ft 436 kts 302°
2026-04-21 12:13 53.24273 3.44784 36396 ft 436 kts 302°
2026-04-21 12:13 53.27443 3.36158 36401 ft 435 kts 304°
2026-04-21 12:14 53.30753 3.27678 36402 ft 435 kts 305°
2026-04-21 12:14 53.34062 3.19189 36404 ft 436 kts 304°
2026-04-21 12:15 53.37348 3.10660 36410 ft 436 kts 304°
2026-04-21 12:15 53.40618 3.02105 36409 ft 436 kts 304°
2026-04-21 12:16 53.43881 2.93525 36415 ft 436 kts 304°
2026-04-21 12:16 53.47140 2.84926 36417 ft 437 kts 304°
2026-04-21 12:17 53.50394 2.76314 36418 ft 437 kts 304°
2026-04-21 12:17 53.53643 2.67686 36427 ft 437 kts 304°
2026-04-21 12:18 53.56887 2.59041 36421 ft 437 kts 304°
2026-04-21 12:18 53.60122 2.50388 36418 ft 437 kts 303°
2026-04-21 12:19 53.63351 2.41724 36430 ft 437 kts 303°
2026-04-21 12:19 53.66573 2.33049 36433 ft 437 kts 303°
2026-04-21 12:20 53.69788 2.24360 36436 ft 437 kts 303°
2026-04-21 12:20 53.72997 2.15661 36441 ft 437 kts 303°
2026-04-21 12:21 53.76200 2.06946 36441 ft 437 kts 303°
2026-04-21 12:21 53.79396 1.98217 36447 ft 437 kts 303°
2026-04-21 12:22 53.82587 1.89473 36441 ft 437 kts 303°
2026-04-21 12:22 53.85770 1.80718 36448 ft 436 kts 302°
2026-04-21 12:23 53.88949 1.71948 36448 ft 436 kts 302°
2026-04-21 12:23 53.92118 1.63171 36452 ft 436 kts 302°
2026-04-21 12:24 53.95259 1.54441 36455 ft 436 kts 302°
2026-04-21 12:24 53.98415 1.45639 36456 ft 436 kts 302°
2026-04-21 12:25 54.01563 1.36828 36458 ft 436 kts 302°
2026-04-21 12:25 54.04706 1.27999 36457 ft 436 kts 302°
2026-04-21 12:26 54.07839 1.19167 36461 ft 436 kts 302°
2026-04-21 12:26 54.10965 1.10324 36459 ft 436 kts 302°
2026-04-21 12:27 54.14085 1.01464 36462 ft 436 kts 302°
2026-04-21 12:27 54.17198 0.92595 36468 ft 435 kts 302°
2026-04-21 12:28 54.20301 0.83721 36467 ft 435 kts 301°
2026-04-21 12:28 54.23397 0.74834 36471 ft 435 kts 301°
2026-04-21 12:29 54.26488 0.65931 36472 ft 435 kts 301°
2026-04-21 12:29 54.29550 0.57081 36477 ft 435 kts 301°
2026-04-21 12:30 54.32625 0.48158 36478 ft 435 kts 301°
2026-04-21 12:30 54.35693 0.39223 36479 ft 435 kts 301°
2026-04-21 12:31 54.38755 0.30275 36485 ft 435 kts 301°
2026-04-21 12:31 54.41808 0.21319 36485 ft 435 kts 301°
2026-04-21 12:32 54.44851 0.12359 36490 ft 434 kts 301°
2026-04-21 12:32 54.47889 0.03382 36490 ft 434 kts 301°
2026-04-21 12:33 54.50918 -0.05602 36492 ft 434 kts 301°
2026-04-21 12:33 54.53940 -0.14595 36493 ft 434 kts 300°
2026-04-21 12:34 54.57109 -0.23434 36505 ft 433 kts 304°
2026-04-21 12:34 54.60534 -0.31983 36499 ft 433 kts 305°
2026-04-21 12:35 54.63990 -0.40501 36505 ft 433 kts 305°
2026-04-21 12:35 54.66868 -0.47577 36504 ft 433 kts 306°
2026-04-21 12:36 54.70328 -0.56089 36506 ft 433 kts 306°
2026-04-21 12:36 54.73789 -0.64618 36509 ft 433 kts 305°
2026-04-21 12:37 54.77248 -0.73153 36503 ft 432 kts 305°
2026-04-21 12:37 54.78960 -0.77382 36321 ft 425 kts 305°
2026-04-21 12:37 54.80655 -0.81568 35753 ft 425 kts 305°
2026-04-21 12:37 54.82363 -0.85774 35116 ft 428 kts 305°
2026-04-21 12:38 54.84087 -0.90002 34547 ft 429 kts 305°
2026-04-21 12:38 54.85814 -0.94222 33896 ft 430 kts 305°
2026-04-21 12:38 54.87554 -0.98478 33063 ft 435 kts 305°
2026-04-21 12:38 54.89296 -1.02754 32443 ft 433 kts 306°
2026-04-21 12:39 54.91035 -1.07047 31740 ft 435 kts 306°
2026-04-21 12:39 54.92780 -1.11385 31081 ft 441 kts 306°
2026-04-21 12:39 54.94531 -1.15766 30724 ft 440 kts 305°
2026-04-21 12:39 54.96274 -1.20145 30606 ft 441 kts 305°
2026-04-21 12:40 54.98020 -1.24542 30527 ft 442 kts 305°
2026-04-21 12:40 55.01486 -1.33437 30517 ft 446 kts 304°
2026-04-21 12:41 55.04920 -1.42426 30505 ft 446 kts 304°
2026-04-21 12:41 55.08311 -1.51352 30322 ft 428 kts 304°
2026-04-21 12:41 55.09915 -1.55593 30122 ft 410 kts 304°
2026-04-21 12:42 55.11452 -1.59671 29836 ft 395 kts 304°
2026-04-21 12:42 55.12961 -1.63686 29161 ft 397 kts 304°
2026-04-21 12:42 55.14372 -1.67831 28709 ft 396 kts 297°
2026-04-21 12:42 55.15508 -1.72159 28435 ft 389 kts 293°
2026-04-21 12:43 55.16525 -1.76481 27935 ft 390 kts 292°
2026-04-21 12:43 55.17534 -1.80875 27504 ft 388 kts 292°
2026-04-21 12:43 55.18547 -1.85230 27156 ft 385 kts 293°
2026-04-21 12:43 55.19571 -1.89546 26731 ft 384 kts 293°
2026-04-21 12:44 55.20606 -1.93839 26340 ft 381 kts 294°
2026-04-21 12:44 55.21643 -1.98092 25987 ft 379 kts 294°
2026-04-21 12:44 55.22681 -2.02327 25569 ft 378 kts 294°
2026-04-21 12:44 55.23717 -2.06549 25184 ft 377 kts 294°
2026-04-21 12:45 55.24748 -2.10750 24847 ft 374 kts 294°
2026-04-21 12:45 55.25771 -2.14925 24473 ft 373 kts 294°
2026-04-21 12:45 55.26792 -2.19097 24095 ft 371 kts 294°
2026-04-21 12:45 55.27806 -2.23247 23671 ft 370 kts 294°
2026-04-21 12:46 55.28813 -2.27382 23269 ft 367 kts 294°
2026-04-21 12:46 55.29813 -2.31493 22879 ft 365 kts 294°
2026-04-21 12:46 55.30807 -2.35587 22486 ft 364 kts 294°
2026-04-21 12:46 55.31794 -2.39661 22117 ft 362 kts 294°
2026-04-21 12:47 55.32775 -2.43717 21745 ft 360 kts 294°
2026-04-21 12:47 55.33749 -2.47752 21374 ft 358 kts 294°
2026-04-21 12:47 55.34717 -2.51770 21025 ft 356 kts 294°
2026-04-21 12:47 55.35679 -2.55770 20679 ft 354 kts 294°
2026-04-21 12:48 55.36624 -2.59762 20331 ft 353 kts 293°
2026-04-21 12:48 55.37532 -2.63751 19993 ft 351 kts 293°
2026-04-21 12:48 55.38429 -2.67736 19660 ft 350 kts 292°
2026-04-21 12:48 55.39319 -2.71704 19319 ft 348 kts 292°
2026-04-21 12:49 55.40206 -2.75660 18982 ft 347 kts 292°
2026-04-21 12:49 55.41089 -2.79606 18619 ft 346 kts 292°
2026-04-21 12:49 55.41970 -2.83531 18258 ft 344 kts 292°
2026-04-21 12:49 55.42850 -2.87442 17904 ft 343 kts 292°
2026-04-21 12:50 55.43725 -2.91328 17537 ft 341 kts 292°
2026-04-21 12:50 55.44600 -2.95201 17190 ft 339 kts 292°
2026-04-21 12:50 55.45472 -2.99058 16845 ft 338 kts 292°
2026-04-21 12:50 55.46341 -3.02891 16504 ft 337 kts 292°
2026-04-21 12:51 55.47209 -3.06711 16153 ft 335 kts 292°
2026-04-21 12:51 55.48075 -3.10517 15816 ft 334 kts 292°
2026-04-21 12:51 55.48940 -3.14310 15486 ft 333 kts 292°
2026-04-21 12:51 55.49802 -3.18081 15156 ft 331 kts 292°
2026-04-21 12:52 55.50660 -3.21829 14857 ft 329 kts 292°
2026-04-21 12:52 55.51517 -3.25559 14546 ft 327 kts 292°
2026-04-21 12:52 55.52372 -3.29277 14225 ft 326 kts 292°
2026-04-21 12:52 55.53213 -3.32923 13868 ft 324 kts 292°
2026-04-21 12:53 55.54063 -3.36594 13500 ft 323 kts 292°
2026-04-21 12:53 55.54912 -3.40259 13153 ft 322 kts 292°
2026-04-21 12:53 55.55755 -3.43903 12844 ft 320 kts 292°
2026-04-21 12:53 55.56594 -3.47529 12522 ft 318 kts 292°
2026-04-21 12:54 55.57428 -3.51145 12193 ft 317 kts 291°
2026-04-21 12:54 55.57865 -3.54923 11805 ft 314 kts 266°
2026-04-21 12:54 55.57403 -3.58612 11483 ft 305 kts 240°
2026-04-21 12:54 55.56188 -3.61599 11136 ft 297 kts 222°
2026-04-21 12:55 55.54851 -3.64380 10777 ft 301 kts 237°
2026-04-21 12:55 55.54210 -3.67912 10482 ft 306 kts 263°
2026-04-21 12:55 55.54465 -3.71629 10124 ft 308 kts 290°
2026-04-21 12:55 55.55572 -3.74822 9793 ft 304 kts 317°
2026-04-21 12:56 55.57238 -3.77005 9382 ft 296 kts 332°
2026-04-21 12:56 55.59025 -3.78824 8780 ft 298 kts 334°
2026-04-21 12:56 55.60841 -3.80611 8444 ft 297 kts 334°
2026-04-21 12:56 55.62625 -3.82358 8174 ft 290 kts 334°
2026-04-21 12:57 55.64393 -3.84085 7599 ft 292 kts 334°
2026-04-21 12:57 55.66164 -3.85815 7150 ft 289 kts 334°
2026-04-21 12:57 55.67910 -3.87528 6684 ft 286 kts 334°
2026-04-21 12:57 55.69641 -3.89236 6221 ft 282 kts 334°
2026-04-21 12:58 55.71348 -3.90935 5728 ft 281 kts 334°
2026-04-21 12:58 55.73048 -3.92637 5247 ft 279 kts 334°
2026-04-21 12:58 55.74790 -3.94025 4982 ft 270 kts 356°
2026-04-21 12:58 55.76526 -3.93656 4964 ft 240 kts 32°
2026-04-21 12:59 55.77616 -3.91717 4964 ft 214 kts 70°
2026-04-21 12:59 55.78109 -3.89259 4976 ft 211 kts 71°
2026-04-21 12:59 55.78665 -3.86852 4976 ft 210 kts 70°
2026-04-21 12:59 55.79267 -3.84487 4978 ft 210 kts 66°
2026-04-21 13:00 55.79945 -3.82184 4981 ft 211 kts 64°
2026-04-21 13:00 55.80669 -3.79919 4988 ft 211 kts 63°
2026-04-21 13:00 55.81412 -3.77669 4987 ft 211 kts 63°
2026-04-21 13:00 55.82166 -3.75406 4948 ft 215 kts 63°
2026-04-21 13:01 55.82946 -3.73070 4678 ft 224 kts 62°
2026-04-21 13:01 55.83748 -3.70678 4373 ft 225 kts 62°
2026-04-21 13:01 55.84552 -3.68281 4071 ft 226 kts 62°
2026-04-21 13:01 55.85360 -3.65868 3751 ft 228 kts 62°
2026-04-21 13:02 55.86176 -3.63439 3436 ft 229 kts 61°
2026-04-21 13:02 55.86994 -3.61004 3104 ft 228 kts 62°
2026-04-21 13:02 55.88534 -3.56425 2493 ft 201 kts 61°
2026-04-21 13:03 55.89223 -3.54379 2260 ft 185 kts 61°
2026-04-21 13:03 55.89858 -3.52488 1972 ft 170 kts 61°
2026-04-21 13:03 55.90441 -3.50755 1759 ft 156 kts 60°
2026-04-21 13:03 55.90975 -3.49170 1547 ft 143 kts 62°
2026-04-21 13:04 55.91469 -3.47707 1408 ft 134 kts 62°
2026-04-21 13:04 55.91956 -3.46248 1184 ft 138 kts 60°
2026-04-21 13:04 55.92451 -3.44786 952 ft 135 kts 59°
2026-04-21 13:04 55.92927 -3.43394 749 ft 128 kts 60°
2026-04-21 13:05 55.93396 -3.42014 567 ft 133 kts 59°
2026-04-21 13:05 55.93869 -3.40571 376 ft 138 kts 59°
2026-04-21 13:05 55.94374 -3.39095 211 ft 141 kts 59°
2026-04-21 13:05 55.94869 -3.37634 127 ft 128 kts 59°
2026-04-21 13:06 55.95360 -3.36143 562 ft 150 kts 61°
2026-04-21 13:06 55.95880 -3.34520 947 ft 154 kts 60°
2026-04-21 13:06 55.96395 -3.32881 1663 ft 146 kts 62°
2026-04-21 13:06 55.96856 -3.31243 2278 ft 140 kts 66°
2026-04-21 13:07 55.97173 -3.29850 3643 ft 102 kts 73°
2026-04-21 13:07 55.97431 -3.28682 4304 ft 124 kts 63°
2026-04-21 13:07 55.98237 -3.27217 4226 ft 194 kts 41°
2026-04-21 13:07 55.99592 -3.26328 4348 ft 223 kts
2026-04-21 13:08 56.01142 -3.26910 4456 ft 238 kts 337°
2026-04-21 13:08 56.02560 -3.28513 4595 ft 243 kts 330°
2026-04-21 13:08 56.03954 -3.30237 4679 ft 243 kts 329°
2026-04-21 13:08 56.05286 -3.32124 4811 ft 249 kts 313°
2026-04-21 13:09 56.06045 -3.34902 4941 ft 255 kts 281°
2026-04-21 13:09 56.05938 -3.38035 5087 ft 255 kts 249°
2026-04-21 13:09 56.05214 -3.40897 5234 ft 253 kts 240°
2026-04-21 13:09 56.04400 -3.43691 5159 ft 253 kts 239°
2026-04-21 13:10 56.03585 -3.46448 5011 ft 249 kts 239°
2026-04-21 13:10 56.02776 -3.49183 4721 ft 250 kts 239°
2026-04-21 13:10 56.01961 -3.51926 4494 ft 249 kts 239°
2026-04-21 13:10 56.01152 -3.54636 4291 ft 246 kts 239°
2026-04-21 13:11 56.00350 -3.57334 4062 ft 246 kts 239°
2026-04-21 13:11 55.99544 -3.60044 3806 ft 248 kts 239°
2026-04-21 13:11 55.98739 -3.62729 3630 ft 242 kts 239°
2026-04-21 13:11 55.97939 -3.65389 3317 ft 245 kts 239°
2026-04-21 13:12 55.97121 -3.68083 3095 ft 242 kts 239°
2026-04-21 13:12 55.96351 -3.70617 3330 ft 226 kts 239°
2026-04-21 13:12 55.95602 -3.73078 3637 ft 234 kts 239°
2026-04-21 13:12 55.94785 -3.75769 3906 ft 253 kts 239°
2026-04-21 13:13 55.93967 -3.78509 4158 ft 246 kts 239°
2026-04-21 13:13 55.93170 -3.81176 4469 ft 242 kts 238°
2026-04-21 13:13 55.92377 -3.83864 4792 ft 247 kts 239°
2026-04-21 13:13 55.91572 -3.86606 5111 ft 252 kts 239°
2026-04-21 13:14 55.90777 -3.89398 5403 ft 254 kts 239°
2026-04-21 13:14 55.89699 -3.91975 4946 ft 266 kts 214°
2026-04-21 13:14 55.88082 -3.93388 4614 ft 256 kts 185°
2026-04-21 13:14 55.86396 -3.93196 4491 ft 235 kts 154°
2026-04-21 13:15 55.85141 -3.91612 4412 ft 215 kts 125°
2026-04-21 13:15 55.84299 -3.89476 4275 ft 208 kts 120°
2026-04-21 13:15 55.83608 -3.87241 4009 ft 207 kts 111°
2026-04-21 13:15 55.83058 -3.84876 3785 ft 205 kts 109°
2026-04-21 13:16 55.82647 -3.82465 3538 ft 204 kts 99°
2026-04-21 13:16 55.82388 -3.79957 3212 ft 208 kts 99°
2026-04-21 13:16 55.82143 -3.77433 3088 ft 208 kts 92°
2026-04-21 13:16 55.82478 -3.74975 3040 ft 206 kts 65°
2026-04-21 13:17 55.83134 -3.72719 3000 ft 204 kts 64°
2026-04-21 13:17 55.83816 -3.70527 2998 ft 201 kts 62°
2026-04-21 13:17 55.84516 -3.68398 3003 ft 199 kts 62°
2026-04-21 13:17 55.85209 -3.66319 3024 ft 191 kts 61°
2026-04-21 13:18 55.85884 -3.64314 2997 ft 186 kts 62°
2026-04-21 13:18 55.86536 -3.62376 2990 ft 178 kts 62°
2026-04-21 13:18 55.87151 -3.60540 3045 ft 166 kts 62°
2026-04-21 13:18 55.87772 -3.58689 2829 ft 180 kts 61°
2026-04-21 13:19 55.88417 -3.56767 2562 ft 179 kts 61°
2026-04-21 13:19 55.89045 -3.54904 2317 ft 171 kts 61°
2026-04-21 13:19 55.89641 -3.53134 2067 ft 162 kts 61°
2026-04-21 13:19 55.90199 -3.51473 1844 ft 151 kts 61°
2026-04-21 13:20 55.90548 -3.50436 1729 ft 143 kts 61°
2026-04-21 13:20 55.91194 -3.48521 1470 ft 133 kts 62°
2026-04-21 13:20 55.91668 -3.47113 1279 ft 133 kts 60°
2026-04-21 13:20 55.92144 -3.45701 1087 ft 134 kts 59°
2026-04-21 13:21 55.92626 -3.44272 883 ft 134 kts 61°
2026-04-21 13:21 55.93103 -3.42847 687 ft 135 kts 59°
2026-04-21 13:21 55.93421 -3.41902 557 ft 133 kts 59°
2026-04-21 13:21 55.93894 -3.40514 367 ft 129 kts 59°
2026-04-21 13:22 55.94513 -3.38686 162 ft 133 kts 59°
2026-04-21 13:22 55.94959 -3.37373 111 ft 102 kts 59°
2026-04-21 13:22 55.95152 -3.36799 112 ft 61 kts 59°
2026-04-21 13:22 55.95256 -3.36459 110 ft 16 kts 95°
2026-04-21 13:23 55.95195 -3.36354 113 ft 9 kts 148°
2026-04-21 13:23 55.95159 -3.36314 114 ft 3 kts 148°
2026-04-21 13:23 55.95157 -3.36312 115 ft 0 kts 148°
2026-04-21 13:24 55.95144 -3.36309 114 ft 6 kts 181°
2026-04-21 13:24 55.95094 -3.36395 113 ft 13 kts 240°
2026-04-21 13:24 55.95046 -3.36545 113 ft 14 kts 240°
2026-04-21 13:24 55.94997 -3.36688 113 ft 13 kts 238°
2026-04-21 13:25 55.94945 -3.36817 114 ft 13 kts 206°
2026-04-21 13:25 55.94861 -3.36781 115 ft 13 kts 175°
2026-04-21 13:25 55.94776 -3.36763 115 ft 12 kts 157°
2026-04-21 13:25 55.94695 -3.36736 115 ft 12 kts 180°
2026-04-21 13:26 55.94614 -3.36734 115 ft 8 kts 179°
2026-04-21 13:26 55.94572 -3.36701 114 ft 7 kts 106°
2026-04-21 13:26 55.94572 -3.36647 115 ft 2 kts 90°
2026-04-21 13:26 55.94572 -3.36626 115 ft 1 kts 90°
2026-04-21 13:27 55.94572 -3.36624 115 ft 0 kts 90°